STARLINK-5748, 55604

Orbit data source: Space-Track

STARLINK-5748, 55604 is a payload satellite owned by SpaceX/Seattle (US) in LEO that was launched on Sun, 12 Feb 2023 UTC via an FALCON 9 launch vehicle from the Air Force Eastern Test Range (AFETR). Payload-class satellites include a variety of spacecraft equipped with specific instruments for various scientific and technological missions. These include communications satellites like Starlink; space stations such as the ISS; scientific satellites like the Hubble; Earth observation satellites from companies like Planet Labs, Umbra, and HawkEye 360; GPS; miniature CubeSats for education and research; and military/defense satellites.

Loading next visibility...
Identifier
55604, 2023-020AM
Orbit
LEO
Country
Flag of USUS
Related business
Manufacturer
SpaceX/Seattle
Mission
Operational Commercial Communications
Bus & Motor
STARLINK, Unknown motor
Mass
305 kg wet, ~290 kg dry
Launch date (UTC)
2023-02-12 (3 years ago)
Launch vehicle
FALCON 9
Launch site
Air Force Eastern Test Range (AFETR)
Object type
Payload
Rocket body
Debris
Shape & HBR
Box + 1 Pan, 4.4 m
Radar Cross Section
13.562 m², Large (>1 m²)

Expand to show TLE details & history
Last TLE update: 16 hours ago

TLE from 16 hours ago
0 STARLINK-5748
1 55604U 23020AM  25260.20562431 -.00000340  00000-0 -10110-4 0  9991
2 55604  43.0030 201.2504 0001111 268.6519  91.4196 15.02532716143120
Epoch: 2025-09-17T04:56Z
TLE epoch observation values (Epoch: 2025-09-17T04:56:05.94Z)
Latitude
-0.00002°
Longitude
130.84072°
Altitude
558.887 km
Speed
7.584 km/s
True Right ascension
13h 25m 00s
True Declination
0° 00' 00"
Sunlit
Object was in daylight at epoch
Visualization orbit readout
Latitude
Unknown
Longitude
Unknown
Altitude
Unknown
Speed
Unknown
Apparent Right ascension
Unknown
Apparent Declination
Unknown
Sunlit
N/A
Visualization observer readout
Local Sidereal Time
14:11:02
Azimuth
Unknown
Elevation
Unknown
Doppler factor
Unknown
Orbital elements
Apogee altitude
561.784 km
Perigee altitude
560.242 km
Semi-major axis
6,939.15 km
Eccentricity
0.00011
Inclination
43.003°
RAAN
201.2504°
Arg. of periapsis
268.6519°
True anomaly
91.43233°
Mean anomaly
91.4196°
Eccentric anomaly
91.42596°
Mean motion
3.75477 °/min
Orbital period
95.88 mins
BSTAR
-0.00001011
Loading maneuver chart data...
Computing Atmospheric mass density...
Loading historical data...
Loading historical data...
Loading historical data...
Loading historical data...
Loading historical data...
Loading historical data...
Loading historical data...

Documentation

Showing up to 5 results
|